Location: Dodge City Community College Clyde Tombaugh Astronomy Center
(37.7756°N, 100.0412°W)
Time: 19:00:07
(UTC+00:00)

ADEOS - Pass Details

Date: 08 December 2021
Orbit: 792 x 795 km, 98.9° (Epoch: 16 January)

Event Time Altitude Azimuth Distance (km) Brightness Sun altitude
Rises 12:33:59 0° 8° (N) 3,302 6.7 -13.4°
Reaches altitude 10° 12:36:21 10° 5° (N) 2,368 5.9 -12.9°
Maximum altitude 12:41:27 57° 288° (WNW) 931 3.6 -12.0°
Drops below altitude 10° 12:46:32 10° 210° (SSW) 2,352 5.9 -11.0°
Sets 12:48:52 0° 206° (SSW) 3,277 6.7 -10.6°
